Location: Cahas Mountain Overlook
(37.0833°N, 80.1000°W)
Time: 09:44:51
(UTC-05:00)

S-56A Canister/Altair - Pass Details

Date: 01 December 2023
Orbit: 640 x 2488 km, 38.9° (Epoch: 25 February)

Event Time Altitude Azimuth Distance (km) Brightness Sun altitude
Rises 16:37:00 0° 283° (WNW) 3,083 11.4 3.8°
Reaches altitude 10° 16:39:06 10° 283° (WNW) 2,269 10.8 3.4°
Maximum altitude 16:44:18 88° 197° (SSW) 926 8.1 2.5°
Drops below altitude 10° 16:51:53 10° 106° (ESE) 3,239 10.3 1.2°
Sets 16:55:23 0° 107° (ESE) 4,513 11.0 0.6°
